User: anonymous   Login
Location: Pleiades Observatory
(40.1297°N, 91.5238°W)
Time: 23:41:59
(UTC-06:00)
Language:

Cosmos 1842 Rocket - Orbit

View from above orbital plane
View from above orbital plane
View from above satellite
View from above satellite

Ground track
Ground track

The orbit data is extracted from the following two-line orbital elements,

1 17912U 87038B   14355.12737365  .00000848  00000-0  10230-3 0  5443
2 17912 082.5010 183.1093 0019761 347.5609 012.5114 14.82549465493010
Epoch (UTC): 21 December 2014 03:03:25
Eccentricity: 0.0019761
inclination: 82.5010°
perigee height: 607 km
apogee height: 635 km
right ascension of ascending node: 183.1093°
argument of perigee: 347.5609°
revolutions per day: 14.82549465
mean anomaly at epoch: 12.5114°
orbit number at epoch: 49301

The dashed part of the orbit path shows where the satellite is in the earth's shadow,  

DLR